Content
SEND FEEDBACK

Daily
Averages
Monthly
Summary
United States of America

TUCSON, ARIZONA


Home > North America > United States > Arizona
Elevation: 2584 feet     Latitude: 32 08N     Longitude: 110 56W

WEATHER
 
SELECT A DAY
Number of Records: 106,760;   Date Range: 1/1/02 - 7/29/14
 
SHARE

PRINT THIS DATA

[ ← Previous Day ]
WEATHER ALMANAC - JANUARY 6, 2013
[ Next Day → ]
[ °C ]   °F
Weather ElementAverageHighLow
Temperature50.9 °F64.9 °F (1:53 pm)39 °F (5:53 am)
Dewpoint19.7 °F25 °F (10:53 pm)14 °F (1:53 pm)
Humidity32.7 %53 % (11:53 pm)14 % (1:53 pm)
Barometer30.04 in30.20 in (1:53 am)29.92 in (4:53 pm)
Wind Speed9 mph16.1 mph (8:53 am)
Weather ElementAverage
Visibility10 mi
Wind DirectionSE (140 °)

Weather ElementTotal
Precipitation---
Heating Degree Days13.1 (Base 65)
Growing Degree Days2 (Base 50)
Averaged from 23 records on January 6, 2013
WEATHER CONDITIONS BREAKOUT
WIND DIRECTION BREAKOUT
WEATHER BY HOUR - JANUARY 6, 2013
[ °C ]   °F
Local TimeTemperatureDewpointHumidityBarometerVisibilityWind DirectionWind SpeedGust SpeedPrecipitationEventsConditions
1:53 AM39.2 °F21.2 °F49 %30.20 in10.0 miSE (140°)11.5 mphClear
2:53 AM41.0 °F21.9 °F47 %30.15 in10.0 miSE (140°)10.4 mphClear
3:53 AM41.0 °F19.9 °F43 %30.14 in10.0 miSSE (150°)12.7 mphClear
4:53 AM42.8 °F19.4 °F39 %30.16 in10.0 miSSE (150°)5.8 mphClear
5:53 AM39.0 °F21.9 °F50 %30.13 in10.0 miSouth (170°)8.1 mphClear
6:53 AM43.0 °F21.0 °F42 %30.13 in10.0 miSSE (160°)12.7 mphClear
7:53 AM39.9 °F21.9 °F49 %30.15 in10.0 miSouth (170°)11.5 mphClear
8:53 AM48.0 °F18.0 °F30 %30.16 in10.0 miSE (140°)16.1 mphClear
9:53 AM52.0 °F17.1 °F25 %30.14 in10.0 miESE (120°)13.8 mphClear
10:53 AM57.0 °F17.1 °F21 %30.12 in10.0 miSE (140°)16.1 mphClear
11:53 AM61.0 °F17.1 °F18 %30.07 in10.0 miSSE (150°)16.1 mphClear
12:53 PM63.0 °F15.1 °F16 %30.01 in10.0 miSSE (150°)8.1 mphClear
1:53 PM64.9 °F14.0 °F14 %29.98 in10.0 miESE (120°)10.4 mphClear
2:53 PM64.9 °F15.1 °F15 %29.95 in10.0 miESE (120°)10.4 mphClear
3:53 PM64.9 °F16.0 °F15 %29.93 in10.0 miESE (120°)13.8 mphClear
4:53 PM64.9 °F16.0 °F15 %29.92 in10.0 miESE (120°)10.4 mphClear
5:53 PM60.1 °F17.1 °F19 %29.93 in10.0 miESE (120°)5.8 mphClear
6:53 PM55.0 °F21.0 °F27 %29.93 in10.0 miNNW (340°)3.5 mphClear
7:53 PM51.1 °F23.0 °F33 %29.94 in10.0 miCalmClear
8:53 PM48.9 °F24.1 °F38 %29.92 in10.0 miCalmClear
9:53 PM44.1 °F24.1 °F45 %29.94 in10.0 miWSW (250°)6.9 mphClear
10:53 PM43.0 °F25.0 °F49 %29.94 in10.0 miWSW (250°)3.5 mphClear
11:53 PM41.0 °F25.0 °F53 %29.92 in10.0 miCalmClear
Hourly data recorded from KTUS, located miles away from Tucson, Arizona







STORIES FROM OUR PARTNERS